| time (UTC) | temp F | wind direction | speed MPH | gust MPH | rain 1hr in | rain 24hr in | rain mn in | humidity % | barometer mb |
| 20260504020042 | 48 | 192 | 0.0 | 1.0 | 0.00 | 0.00 | 0.00 | 58 | 1015.4 |
| 20260504014543 | 49 | 0 | 0.0 | 0.0 | 0.00 | 0.00 | 0.00 | 59 | 1015.4 |
| 20260504013037 | 49 | 0 | 0.0 | 1.0 | 0.00 | 0.00 | 0.00 | 54 | 1015.1 |
| 20260504011546 | 49 | 0 | 0.0 | 1.0 | 0.00 | 0.00 | 0.00 | 53 | 1015.1 |
| 20260504010046 | 50 | 0 | 0.0 | 0.0 | 0.00 | 0.00 | 0.00 | 49 | 1015.1 |
| 20260504004543 | 50 | 0 | 0.0 | 1.0 | 0.00 | 0.00 | 0.00 | 47 | 1014.7 |
| 20260504003046 | 51 | 0 | 0.0 | 3.0 | 0.00 | 0.00 | 0.00 | 42 | 1014.6 |
| 20260504001547 | 51 | 262 | 1.0 | 2.0 | 0.00 | 0.00 | 0.00 | 43 | 1014.7 |
| 20260504000045 | 51 | 274 | 1.0 | 3.0 | 0.00 | 0.00 | 0.00 | 43 | 1014.7 |
| 20260503234544 | 51 | 230 | 2.0 | 3.0 | 0.00 | 0.00 | 0.00 | 42 | 1014.9 |
| 20260503233039 | 52 | 227 | 3.0 | 8.0 | 0.00 | 0.00 | 0.00 | 39 | 1015.0 |
| 20260503231548 | 52 | 246 | 4.0 | 8.0 | 0.00 | 0.00 | 0.00 | 38 | 1015.1 |
| 20260503230041 | 52 | 228 | 5.0 | 10.0 | 0.00 | 0.00 | 0.00 | 38 | 1015.1 |
| 20260503224549 | 53 | 237 | 5.0 | 10.0 | 0.00 | 0.00 | 0.00 | 38 | 1015.2 |
| 20260503223044 | 53 | 234 | 5.0 | 10.0 | 0.00 | 0.00 | 0.00 | 38 | 1015.2 |
| 20260503221544 | 54 | 301 | 5.0 | 10.0 | 0.00 | 0.00 | 0.00 | 37 | 1015.3 |
| 20260503220043 | 54 | 241 | 5.0 | 13.0 | 0.00 | 0.00 | 0.00 | 39 | 1015.0 |
| 20260503214548 | 54 | 189 | 6.0 | 14.0 | 0.00 | 0.00 | 0.00 | 40 | 1014.9 |
| 20260503213057 | 54 | 250 | 7.0 | 12.0 | 0.00 | 0.00 | 0.00 | 39 | 1015.1 |
| 20260503211613 | 55 | 263 | 7.0 | 13.0 | 0.00 | 0.00 | 0.00 | 41 | 1015.1 |
| 20260503210044 | 54 | 267 | 6.0 | 12.0 | 0.00 | 0.00 | 0.00 | 38 | 1015.3 |
| 20260503204558 | 54 | 276 | 7.0 | 13.0 | 0.00 | 0.00 | 0.00 | 37 | 1015.3 |
| 20260503203041 | 54 | 250 | 5.0 | 14.0 | 0.00 | 0.00 | 0.00 | 41 | 1015.5 |
| 20260503201539 | 54 | 255 | 6.0 | 11.0 | 0.00 | 0.00 | 0.00 | 40 | 1015.7 |
| 20260503200047 | 53 | 258 | 7.0 | 12.0 | 0.00 | 0.00 | 0.00 | 40 | 1016.0 |
| 20260503194541 | 53 | 265 | 7.0 | 15.0 | 0.00 | 0.00 | 0.00 | 40 | 1016.1 |
| 20260503193041 | 53 | 316 | 6.0 | 13.0 | 0.00 | 0.00 | 0.00 | 37 | 1016.4 |
| 20260503191554 | 53 | 320 | 6.0 | 12.0 | 0.00 | 0.00 | 0.00 | 38 | 1016.6 |
| 20260503190039 | 52 | 290 | 5.0 | 12.0 | 0.00 | 0.00 | 0.00 | 40 | 1016.9 |
| 20260503184541 | 52 | 263 | 6.0 | 19.0 | 0.00 | 0.00 | 0.00 | 40 | 1017.0 |
| 20260503183045 | 51 | 278 | 5.0 | 10.0 | 0.00 | 0.00 | 0.00 | 39 | 1017.1 |
| 20260503181538 | 50 | 351 | 4.0 | 14.0 | 0.00 | 0.00 | 0.00 | 37 | 1017.2 |
| 20260503180041 | 50 | 286 | 4.0 | 10.0 | 0.00 | 0.00 | 0.00 | 39 | 1017.2 |
| 20260503174600 | 49 | 240 | 2.0 | 10.0 | 0.00 | 0.00 | 0.00 | 40 | 1017.6 |
| 20260503173042 | 49 | 244 | 6.0 | 13.0 | 0.00 | 0.00 | 0.00 | 44 | 1017.8 |
| 20260503171541 | 48 | 277 | 8.0 | 14.0 | 0.00 | 0.00 | 0.00 | 41 | 1017.9 |
| 20260503081554 | 30 | 0 | 0.0 | 0.0 | 0.00 | 0.00 | 0.00 | 83 | 1015.9 |
| 20260503071600 | 34 | 0 | 0.0 | 0.0 | 0.00 | 0.00 | 0.00 | 75 | 1015.4 |
| 20260503054555 | 37 | 312 | 5.0 | 9.0 | 0.00 | 0.00 | 0.00 | 71 | 1015.4 |
| 20260503053043 | 37 | 279 | 3.0 | 8.0 | 0.00 | 0.00 | 0.00 | 72 | 1015.5 |
| 20260503051548 | 37 | 351 | 3.0 | 5.0 | 0.00 | 0.00 | 0.00 | 72 | 1015.4 |
| 20260503050043 | 38 | 333 | 5.0 | 10.0 | 0.00 | 0.00 | 0.00 | 71 | 1015.3 |
| 20260503044540 | 38 | 336 | 2.0 | 9.0 | 0.00 | 0.00 | 0.00 | 71 | 1015.2 |
| 20260503043044 | 38 | 355 | 3.0 | 7.0 | 0.00 | 0.00 | 0.00 | 70 | 1015.1 |
| 20260503041543 | 38 | 333 | 1.0 | 5.0 | 0.00 | 0.00 | 0.00 | 69 | 1015.1 |
| 20260503040045 | 38 | 300 | 2.0 | 6.0 | 0.00 | 0.00 | 0.00 | 68 | 1015.1 |
| 20260503034543 | 39 | 336 | 2.0 | 4.0 | 0.00 | 0.00 | 0.00 | 67 | 1015.1 |
| 20260503033053 | 39 | 331 | 3.0 | 7.0 | 0.00 | 0.00 | 0.00 | 66 | 1015.2 |
| 20260503031541 | 39 | 310 | 2.0 | 8.0 | 0.00 | 0.00 | 0.00 | 64 | 1015.0 |
| 20260503030038 | 40 | 281 | 3.0 | 8.0 | 0.00 | 0.00 | 0.00 | 62 | 1015.0 |
| 20260503024548 | 40 | 320 | 2.0 | 5.0 | 0.00 | 0.00 | 0.00 | 61 | 1015.0 |
| 20260503023047 | 41 | 302 | 3.0 | 10.0 | 0.00 | 0.00 | 0.00 | 60 | 1015.0 |
| 20260503021538 | 41 | 318 | 4.0 | 9.0 | 0.00 | 0.00 | 0.00 | 59 | 1014.9 |